Red Bluff, CA

12:53 PM PDT on April 21, 2018 (GMT -0700)
Red Bluff Municipal

Weather History for KRBL - July, 2013

Change the Weather History Date:

Thursday, July 4, 2013

  Actual Average Record
Temperature  
Mean Temperature 100 °F -  
Max Temperature 111 °F 95 °F 112 °F (1970)
Min Temperature 86 °F 64 °F 52 °F (1964)
Cooling Degree Days 35    
Growing Degree Days 50 (Base 50)    
Moisture  
Dew Point 43 °F    
Average Humidity 16    
Maximum Humidity 28    
Minimum Humidity 4    
Precipitation  
Precipitation 0.00 in - - ()
Sea Level Pressure  
Sea Level Pressure 29.67 in    
Wind  
Wind Speed 12 mph (NNW)    
Max Wind Speed 21 mph    
Max Gust Speed 28 mph    
Visibility 10 miles    
Events      
Averages and records for this station are not official NWS values.
T = Trace of Precipitation, MM = Missing Value Source: NWS Daily Summary

Daily Weather History Graph

Daily Weather History Graph

Search for Another Location

Airport or City:

Astronomy

Jul. 04, 2013 Rise Set
Actual Time 5:45 AM PDT 8:41 PM PDT
Civil Twilight 5:12 AM PDT 9:14 PM PDT
Nautical Twilight 4:31 AM PDT 9:55 PM PDT
Astronomical Twilight 3:43 AM PDT 10:43 PM PDT
Moon 3:05 AM PDT (7/4) 5:50 PM PDT (7/4)
Length of Visible Light 16h 01m
Length of Day
14h 56m
Waning Crescent, 11% of the Moon is Illuminated
Jul 4
Waning Crescent
Jul 8
New
Jul 15
First Quarter
Jul 22
Full
Jul 29
Last Quarter

Hourly Weather History & Observations

Time (PDT) Temp. Heat Index Dew Point Humidity Pressure Visibility Wind Dir Wind Speed Gust Speed Precip Events Conditions
12:54 AM 90.0 °F 87.5 °F 53.1 °F 28% 29.75 in 10.0 mi NW 5.8 mph - N/A   Clear
1:54 AM 91.0 °F 88.7 °F 54.0 °F 28% 29.75 in 10.0 mi North 8.1 mph - N/A   Clear
2:54 AM 93.0 °F 90.6 °F 53.1 °F 26% 29.75 in 10.0 mi North 15.0 mph - 0.00 in   Partly Cloudy
3:54 AM 91.9 °F - 52.0 °F 26% 29.73 in 10.0 mi North 8.1 mph - N/A   Clear
4:54 AM 90.0 °F 87.5 °F 53.1 °F 28% 29.74 in 10.0 mi NW 11.5 mph - N/A   Clear
5:54 AM 91.9 °F 89.5 °F 53.1 °F 27% 29.75 in 10.0 mi NNW 12.7 mph 17.3 mph N/A   Clear
6:54 AM 93.0 °F - 52.0 °F 25% 29.74 in 10.0 mi NNE 10.4 mph - N/A   Clear
7:54 AM 91.9 °F 89.5 °F 53.1 °F 27% 29.76 in 10.0 mi NNW 6.9 mph - N/A   Clear
8:54 AM 93.0 °F - 48.9 °F 22% 29.73 in 10.0 mi North 16.1 mph - N/A   Clear
9:54 AM 96.1 °F - 46.0 °F 18% 29.73 in 10.0 mi North 16.1 mph 21.9 mph N/A   Clear
10:54 AM 102.0 °F - 42.1 °F 13% 29.72 in 10.0 mi North 15.0 mph 23.0 mph N/A   Clear
11:54 AM 102.9 °F - 44.1 °F 14% 29.71 in 10.0 mi NNW 16.1 mph 24.2 mph N/A   Clear
12:54 PM 107.1 °F - 42.1 °F 11% 29.69 in 10.0 mi NNW 17.3 mph 24.2 mph N/A   Clear
1:54 PM 109.0 °F - 37.0 °F 9% 29.67 in 10.0 mi NNE 17.3 mph 23.0 mph N/A   Clear
2:54 PM 109.9 °F - 37.9 °F 9% 29.64 in 10.0 mi North 9.2 mph 21.9 mph N/A   Clear
3:54 PM 109.9 °F - 39.0 °F 9% 29.61 in 10.0 mi NW 6.9 mph - N/A   Clear
4:54 PM 111.0 °F - 30.0 °F 6% 29.59 in 10.0 mi NW 17.3 mph 23.0 mph N/A   Clear
5:54 PM 109.0 °F - 30.0 °F 7% 29.57 in 10.0 mi NW 18.4 mph 25.3 mph N/A   Clear
6:54 PM 105.1 °F - 37.9 °F 10% 29.57 in 10.0 mi WNW 16.1 mph 26.5 mph N/A   Clear
7:54 PM 99.0 °F - 37.0 °F 12% 29.57 in 10.0 mi NW 17.3 mph 26.5 mph N/A   Clear
8:54 PM 95.0 °F - 37.0 °F 13% 29.57 in 10.0 mi NW 20.7 mph 27.6 mph N/A   Clear
9:54 PM 91.0 °F - 37.0 °F 15% 29.60 in 10.0 mi NNW 13.8 mph 23.0 mph N/A   Clear
10:54 PM 89.1 °F - 35.1 °F 15% 29.61 in 10.0 mi NNW 9.2 mph 20.7 mph N/A   Clear
11:54 PM 86.0 °F - 35.1 °F 16% 29.61 in 10.0 mi NNW 10.4 mph - N/A   Clear